Location: Casco Millpond
(44.5581°N, 87.6111°W)
Time: 09:08:21
(UTC+00:00)

Lacrosse 5 rocket - Pass Details

Date: 16 January 2026
Orbit: 402 x 482 km, 57.0° (Epoch: 10 February)

Event Time Altitude Azimuth Distance (km) Brightness Sun altitude
Exits shadow 12:50:46 - 322° (NW) 2,119 3.8 -6.0°
Reaches altitude 10° 12:52:12 10° 335° (NNW) 1,683 3.4 -5.8°
Maximum altitude 12:54:51 18° 19° (NNE) 1,270 3.1 -5.3°
Drops below altitude 10° 12:57:30 10° 63° (ENE) 1,677 4.4 -4.9°
Sets 13:00:12 0° 84° (E) 2,548 5.9 -4.5°
